Date String (YYYY-MM-DD hh:mm:ss) UTC,Instrument flags,Ambient pressure (hPa),Sample flow (lpm),Bypass flow (lpm),Sample temperature (°C),Ambient temperature (°C),ASC tube jacket temperature (°C),LED temperature (°C),Box temperature (°C),Sample RH (%),Span deviation,Mass concentration (μg/m³),Mass concentration (μg/m³),Mass concentration (μg/m³)
DateTimeUTC,F1_M11,P_M11,Q1_M11,Q2_M11,T1_M11,T2_M11,T3_M11,T4_M11,T5_M11,U1_M11,ZSPAN_M11,X0_M11,X2_M11,X1_M11
2021-09-11 11:00:00,,0829.3,5.00,0.00,29.7,28.6,00.0,38.8,31.5,11.8,0002.4,0017.37,0010.27,0009.60
2021-09-11 11:01:00,,0829.3,5.00,0.00,29.8,28.7,00.0,38.8,31.5,11.9,0002.4,0017.38,0010.27,0009.62
2021-09-11 11:02:00,,0829.4,4.99,0.00,29.8,28.8,00.0,38.8,31.6,11.9,0002.1,0016.87,0010.35,0009.67
2021-09-11 11:03:00,,0829.3,4.99,0.00,29.8,28.9,00.0,38.8,31.7,11.7,0002.2,0016.76,0010.41,0009.71
2021-09-11 11:04:00,,0829.4,5.00,0.00,29.9,28.9,00.0,38.8,31.7,11.7,0002.0,0016.87,0010.40,0009.74
2021-09-11 11:05:00,,0829.3,5.00,0.00,29.9,29.0,00.0,38.8,31.8,11.6,0001.9,0016.46,0010.40,0009.76
2021-09-11 11:06:00,,0829.3,4.99,0.00,29.9,29.1,00.0,38.9,31.8,11.6,0001.7,0016.78,0010.41,0009.75
2021-09-11 11:07:00,,0829.4,5.00,0.00,30.0,29.0,00.0,38.9,31.8,11.6,0001.8,0017.27,0010.43,0009.75
2021-09-11 11:08:00,,0829.4,5.00,0.00,29.9,27.3,00.0,38.9,31.4,11.6,0001.8,0017.02,0010.38,0009.74
2021-09-11 11:09:00,,0829.4,5.01,0.00,29.8,26.5,00.0,38.9,31.1,11.8,0001.6,0016.30,0010.39,0009.75
2021-09-11 11:10:00,,0829.4,5.00,0.00,29.7,26.7,00.0,38.8,31.2,11.8,0001.4,0016.27,0010.40,0009.75
2021-09-11 11:11:00,,0829.4,5.00,0.00,29.6,27.1,00.0,38.8,31.2,11.7,0001.5,0016.34,0010.43,0009.78
2021-09-11 11:12:00,,0829.5,5.00,0.00,29.6,27.5,00.0,38.8,31.2,11.8,0001.3,0017.25,0010.54,0009.84
2021-09-11 11:13:00,,0829.5,4.99,0.00,29.6,27.8,00.0,38.8,31.3,11.7,0001.2,0017.61,0010.54,0009.84
2021-09-11 11:14:00,,0829.5,5.00,0.00,29.6,28.0,00.0,38.8,31.3,11.7,0001.2,0017.47,0010.53,0009.86
2021-09-11 11:15:00,,0829.5,5.01,0.00,29.7,28.2,00.0,38.8,31.4,11.7,0001.3,0017.20,0010.56,0009.89
2021-09-11 11:16:00,,0829.5,4.98,0.00,29.7,28.4,00.0,38.8,31.5,11.6,0001.2,0017.36,0010.64,0009.96
2021-09-11 11:17:00,,0829.5,5.01,0.00,29.7,28.5,00.0,38.8,31.5,11.6,0001.4,0017.90,0010.70,0010.01
2021-09-11 11:18:00,,0829.5,5.01,0.00,29.8,28.7,00.0,38.8,31.5,11.6,0001.0,0017.64,0010.73,0010.06
2021-09-11 11:19:00,,0829.5,5.00,0.00,29.8,28.8,00.0,38.8,31.6,11.6,0000.7,0018.04,0010.86,0010.12
2021-09-11 11:20:00,,0829.5,5.01,0.00,29.8,28.8,00.0,38.8,31.6,11.5,0000.9,0018.37,0010.99,0010.21
2021-09-11 11:21:00,,0829.5,5.00,0.00,29.9,28.9,00.0,38.8,31.7,11.5,0001.2,0018.49,0011.07,0010.30
2021-09-11 11:22:00,,0829.5,5.00,0.00,29.9,29.0,00.0,38.8,31.7,11.4,0001.2,0018.89,0011.17,0010.37
2021-09-11 11:23:00,,0829.5,5.00,0.00,29.9,29.0,00.0,38.9,31.7,11.4,0001.1,0018.50,0011.21,0010.42
2021-09-11 11:24:00,,0829.5,5.00,0.00,30.0,29.1,00.0,38.9,31.8,11.4,0001.2,0018.52,0011.29,0010.48
2021-09-11 11:25:00,,0829.5,5.00,0.00,30.0,29.1,00.0,38.9,31.8,11.4,0001.6,0019.17,0011.35,0010.53
2021-09-11 11:26:00,,0829.5,4.99,0.00,29.9,27.5,00.0,38.9,31.3,11.4,0001.8,0019.45,0011.46,0010.60
2021-09-11 11:27:00,,0829.5,4.99,0.00,29.7,25.6,00.0,38.9,30.8,11.5,0002.1,0020.02,0011.56,0010.68
2021-09-11 11:28:00,,0829.5,5.02,0.00,29.6,25.5,00.0,38.8,30.8,11.7,0002.3,0019.75,0011.63,0010.76
2021-09-11 11:29:00,,0829.5,5.00,0.00,29.5,26.0,00.0,38.8,30.8,11.9,0002.3,0019.67,0011.73,0010.85
2021-09-11 11:30:00,,0829.6,5.00,0.00,29.4,26.5,00.0,38.7,30.9,12.1,0002.6,0020.01,0011.84,0010.96
2021-09-11 11:31:00,,0829.5,5.00,0.00,29.4,26.9,00.0,38.7,31.0,12.2,0002.9,0020.17,0011.92,0011.05
2021-09-11 11:32:00,,0829.5,4.98,0.00,29.4,27.3,00.0,38.7,31.0,12.3,0002.6,0021.18,0012.08,0011.13
2021-09-11 11:33:00,,0829.5,5.00,0.00,29.4,27.6,00.0,38.6,31.1,12.5,0002.2,0021.37,0012.19,0011.21
2021-09-11 11:34:00,,0829.5,5.00,0.00,29.5,27.9,00.0,38.6,31.2,12.7,0001.9,0022.06,0012.35,0011.32
2021-09-11 11:35:00,,0829.5,5.00,0.00,29.5,28.1,00.0,38.6,31.2,12.6,0001.9,0022.92,0012.49,0011.41
2021-09-11 11:36:00,,0829.5,5.01,0.00,29.5,28.2,00.0,38.6,31.3,12.7,0001.7,0023.27,0012.62,0011.51
2021-09-11 11:37:00,,0829.5,4.99,0.00,29.5,28.4,00.0,38.6,31.3,12.9,0001.6,0024.19,0012.72,0011.60
2021-09-11 11:38:00,,0829.6,5.02,0.00,29.6,28.5,00.0,38.6,31.4,12.9,0001.6,0024.06,0012.80,0011.67
2021-09-11 11:39:00,,0829.6,5.02,0.00,29.6,28.6,00.0,38.7,31.4,12.8,0001.2,0023.74,0012.90,0011.71
2021-09-11 11:40:00,,0829.5,4.99,0.00,29.7,28.6,00.0,38.7,31.4,12.5,0001.4,0024.03,0012.99,0011.75
2021-09-11 11:41:00,,0829.6,5.00,0.00,29.7,28.7,00.0,38.7,31.5,12.4,0001.4,0024.00,0013.06,0011.79
2021-09-11 11:42:00,,0830.0,5.01,0.00,29.7,28.8,00.0,38.7,31.5,12.2,0001.4,0024.04,0013.12,0011.78
2021-09-11 11:43:00,,0830.0,4.99,0.00,29.8,28.9,00.0,38.7,31.6,12.2,0001.5,0024.47,0013.13,0011.76
2021-09-11 11:44:00,,0829.7,5.00,0.00,29.8,28.9,00.0,38.7,31.6,12.4,0002.0,0024.81,0013.15,0011.76
2021-09-11 11:45:00,,0829.6,5.01,0.00,29.8,29.0,00.0,38.8,31.7,12.3,0002.3,0024.21,0013.13,0011.73
2021-09-11 11:46:00,,0829.7,5.00,0.00,29.9,29.0,00.0,38.8,31.7,12.1,0002.4,0023.16,0013.12,0011.70
2021-09-11 11:47:00,,0829.7,5.00,0.00,29.9,29.0,00.0,38.8,31.7,12.0,0002.5,0022.67,0013.09,0011.65
2021-09-11 11:48:00,,0829.8,4.99,0.00,29.9,29.1,00.0,38.8,31.8,11.8,0002.3,0021.54,0013.00,0011.56
2021-09-11 11:49:00,,0829.6,5.00,0.00,30.0,29.0,00.0,38.9,31.8,11.8,0002.1,0022.33,0012.91,0011.48
2021-09-11 11:50:00,,0829.7,5.01,0.00,29.9,27.5,00.0,38.9,31.4,11.9,0002.1,0022.30,0012.83,0011.40
2021-09-11 11:51:00,,0829.9,4.99,0.00,29.7,25.6,00.0,38.8,30.8,12.1,0001.9,0022.72,0012.65,0011.27
2021-09-11 11:52:00,,0829.6,5.02,0.00,29.5,25.5,00.0,38.8,30.8,12.2,0002.0,0022.67,0012.53,0011.16
2021-09-11 11:53:00,,0829.7,5.00,0.00,29.5,26.0,00.0,38.7,30.9,12.3,0001.7,0022.38,0012.38,0011.04
2021-09-11 11:54:00,,0829.7,4.99,0.00,29.4,26.5,00.0,38.7,30.9,12.4,0001.4,0021.42,0012.25,0010.95
2021-09-11 11:55:00,,0829.7,5.00,0.00,29.4,26.9,00.0,38.6,30.9,12.4,0001.3,0020.19,0012.09,0010.81
2021-09-11 11:56:00,,0829.8,5.01,0.00,29.4,27.3,00.0,38.6,31.0,12.3,0001.2,0019.75,0011.98,0010.72
2021-09-11 11:57:00,,0829.8,5.00,0.00,29.4,27.6,00.0,38.6,31.1,12.2,0001.2,0019.23,0011.85,0010.64
2021-09-11 11:58:00,,0829.7,4.99,0.00,29.4,27.8,00.0,38.6,31.1,12.4,0000.9,0019.45,0011.77,0010.57
2021-09-11 11:59:00,,0829.7,5.01,0.00,29.5,28.0,00.0,38.6,31.2,12.3,0000.9,0019.88,0011.74,0010.51
